Hourly Data Report for September 08, 2017

All times are specified in Local Standard Time (LST). Add 1 hour to adjust for Daylight Saving Time where and when it is observed.

PENTICTON A
BRITISH COLUMBIA

49°27'45.000" N
119°36'08.000" W
344.40 m
1126146
71889
YYF

Download Data

Hourly Data (September 2017)
Hourly Data Report for September 8, 2017
Temp Definition
°C
Dew Point Temp Definition
°C
Rel Hum Definition
%
Wind Dir Definition
10's deg

Wind Spd Definition
km/h
Visibility Definition
km
Stn Press Definition
kPa
Hmdx Definition


Wind Chill Definition


Weather Definition


TIME
00:00 Legend Double Dagger 16.7 12.4 75 36 2 8.1 96.79     Smoke
01:00 Legend Double Dagger 16.9 12.6 75 36 2 8.1 96.83     Smoke
02:00 Legend Double Dagger 16.4 12.6 78 2 4 8.1 96.85     Smoke
03:00 Legend Double Dagger 15.9 11.8 76 34 5 8.1 96.89     Smoke
04:00 Legend Double Dagger 17.5 10.7 64 36 3 6.4 96.91     Smoke
05:00 Legend Double Dagger 18.8 11.1 60 36 2 4.8 96.90     Smoke
06:00 Legend Double Dagger 16.9 11.2 69 28 3 4.8 96.96     Smoke
07:00 Legend Double Dagger 17.1 11.3 69 29 4 4.8 96.98     Smoke
08:00 Legend Double Dagger 20.9 14.7 67 18 9 4.8 97.04 25   Smoke
09:00 Legend Double Dagger 22.5 13.6 57 15 17 4.8 97.04 26   Smoke
10:00 Legend Double Dagger 23.6 13.2 51 16 14 4.8 97.01 27   Smoke
11:00 Legend Double Dagger 25.1 13.1 47 16 13 4.8 96.98 28   Smoke
12:00 Legend Double Dagger 25.7 13.4 46 17 10 4.8 96.94 29   Smoke
13:00 Legend Double Dagger 27.1 13.7 43 16 9 4.8 96.88 30   Smoke
14:00 Legend Double Dagger 27.5 14.0 43 15 9 4.8 96.79 31   Smoke
15:00 Legend Double Dagger 28.0 13.0 39 16 7 4.8 96.73 31   Smoke
16:00 Legend Double Dagger 28.6 13.5 39 1 4 4.0 96.71 32   Smoke
17:00 Legend Double Dagger 24.9 13.8 50 35 7 4.8 96.69 28   Smoke
18:00 Legend Double Dagger 25.0 13.0 47 35 16 4.8 96.73 28   Thunderstorms,Smoke
19:00 Legend Double Dagger 23.8 15.4 59 1 14 8.1 96.85 28   Smoke
20:00 Legend Double Dagger 22.8 15.7 64 36 9 9.7 96.88 27   Smoke
21:00 Legend Double Dagger 21.9 17.3 75 3 19 9.7 96.90 27   Smoke
22:00 Legend Double Dagger 20.4 15.5 73 36 6 9.7 96.97 25   Smoke
23:00 Legend Double Dagger 18.6 15.4 81 36 11 9.7 96.97     Smoke

Notes on Data Quality.

Legend

  • E = Estimated
  • M = Missing
  • NA = Not Available
  • ‡ = Partner data that is not subject to review by the National Climate Archives
Date modified: